Weather History for Branson, MO

Change the Weather History Date:

Tuesday, July 23, 2013

  Actual Average (KHRO) Record (KHRO)
Temperature  
Mean Temperature 81 °F 79 °F  
Max Temperature 93 °F 90 °F 109 °F (1901)
Min Temperature 69 °F 68 °F 44 °F (1947)
Degree Days  
Heating Degree Days 0 0  
Month to date heating degree days 0  
Since 1 June heating degree days 6  
Since 1 July heating degree days 0  
Cooling Degree Days 16 14  
Month to date cooling degree days 303  
Year to date cooling degree days 707  
Since 1 June cooling degree days 568  
Growing Degree Days 31 (Base 50)    
Moisture  
Dew Point 70 °F    
Average Humidity 76    
Maximum Humidity 94    
Minimum Humidity 44    
Precipitation  
Precipitation 0.00 in 0.10 in 1.37 in (1969)
Month to date precipitation 2.31  
Year to date precipitation 24.55  
Snow  
Snow 0.00 in 0.00 in - ()
Month to date snowfall 0.0  
Since 1 June snowfall 0.0  
Since 1 July snowfall 0.0  
Snow Depth -    
Sea Level Pressure  
Sea Level Pressure 29.90 in    
Wind  
Wind Speed 7 mph (SW)    
Max Wind Speed 16 mph    
Max Gust Speed 37 mph    
Visibility 10 miles    
Events Rain , Thunderstorm    
T = Trace of Precipitation, MM = Missing Value Source: NWS Daily Summary

Daily Weather History Graph

Daily Weather History Graph

Search for Another Location

Airport:

Trip Planner

Search our weather history database for the weather conditions in past years. The results will help you decide how hot, cold, wet, or windy it might be!

Date:

Astronomy

Jul. 23, 2013 Rise Set
Actual Time 6:12 AM CDT 8:25 PM CDT
Civil Twilight 5:43 AM CDT 8:55 PM CDT
Nautical Twilight 5:07 AM CDT 9:30 PM CDT
Astronomical Twilight 4:28 AM CDT 10:09 PM CDT
Moon 8:59 PM CDT 7:18 AM CDT
Length of Visible Light 15h 12m
Length of Day
14h 13m
Full, 99% of the Moon is Illuminated
Jul 23
Full
Jul 29
Last Quarter
Aug 6
New
Aug 14
First Quarter
Aug 20
Full

Hourly Weather History & Observations

Time (CDT) Temp. Heat Index Dew Point Humidity Pressure Visibility Wind Dir Wind Speed Gust Speed Precip Events Conditions
12:15 AM 77.0 °F - 69.8 °F 78% 29.93 in 10.0 mi SSW 3.5 mph - N/A   Clear
12:35 AM 77.0 °F - 71.6 °F 83% 29.93 in 10.0 mi SW 5.8 mph - N/A   Clear
12:55 AM 78.8 °F - 69.8 °F 74% 29.93 in 10.0 mi SW 6.9 mph - N/A   Clear
1:15 AM 78.8 °F - 71.6 °F 78% 29.93 in 10.0 mi SW 6.9 mph - N/A   Clear
1:35 AM 78.8 °F - 71.6 °F 78% 29.93 in 10.0 mi SW 8.1 mph - N/A   Clear
1:55 AM 78.8 °F - 71.6 °F 78% 29.93 in 10.0 mi SW 6.9 mph - N/A   Clear
2:15 AM 78.8 °F - 71.6 °F 78% 29.93 in 10.0 mi SW 6.9 mph - N/A   Clear
2:35 AM 77.0 °F - 71.6 °F 83% 29.93 in 10.0 mi SW 6.9 mph - N/A   Clear
2:55 AM 77.0 °F - 71.6 °F 83% 29.92 in 10.0 mi SW 8.1 mph - N/A   Clear
3:15 AM 77.0 °F - 71.6 °F 83% 29.91 in 10.0 mi SW 6.9 mph - N/A   Clear
3:35 AM 77.0 °F - 69.8 °F 78% 29.90 in 10.0 mi SW 6.9 mph - N/A   Clear
3:55 AM 77.0 °F - 69.8 °F 78% 29.89 in 10.0 mi SW 9.2 mph - N/A   Clear
4:15 AM 77.0 °F - 69.8 °F 78% 29.89 in 10.0 mi SW 9.2 mph - N/A   Clear
4:35 AM 77.0 °F - 69.8 °F 78% 29.90 in 10.0 mi SW 6.9 mph - N/A   Clear
4:55 AM 77.0 °F - 69.8 °F 78% 29.90 in 10.0 mi SW 6.9 mph - N/A   Clear
5:15 AM 78.8 °F - 69.8 °F 74% 29.90 in 10.0 mi SW 8.1 mph - N/A   Partly Cloudy
5:35 AM 77.0 °F - 69.8 °F 78% 29.91 in 10.0 mi West 4.6 mph - N/A   Scattered Clouds
5:55 AM 77.0 °F - 71.6 °F 83% 29.93 in 10.0 mi West 6.9 mph - N/A   Scattered Clouds
6:15 AM 75.2 °F - 71.6 °F 89% 29.94 in 9.0 mi West 4.6 mph - N/A Rain Light Rain
6:35 AM 75.2 °F - 71.6 °F 89% 29.93 in 10.0 mi WSW 9.2 mph - N/A Rain Light Rain
6:55 AM 75.2 °F - 71.6 °F 89% 29.22 in 10.0 mi West 11.5 mph - N/A   Mostly Cloudy
7:47 AM 77.0 °F - 71.6 °F 83% 29.94 in 10.0 mi WSW 6.9 mph - N/A   Partly Cloudy
8:51 AM 82.4 °F 87.2 °F 71.6 °F 70% 29.93 in 10.0 mi WSW 9.2 mph 16.1 mph N/A   Partly Cloudy
9:52 AM 86.0 °F 91.8 °F 71.6 °F 62% 29.95 in 10.0 mi WSW 15.0 mph 23.0 mph N/A   Partly Cloudy
10:45 AM 87.8 °F 93.8 °F 71.6 °F 58% 29.94 in 10.0 mi WSW 8.1 mph - N/A   Partly Cloudy
11:45 AM 89.6 °F 96.2 °F 71.6 °F 55% 29.94 in 10.0 mi West 8.1 mph - N/A   Scattered Clouds
12:50 PM 91.4 °F 98.4 °F 71.6 °F 52% 29.92 in 10.0 mi West 9.2 mph 17.3 mph N/A   Scattered Clouds
1:46 PM 93.2 °F 98.8 °F 69.8 °F 46% 29.90 in 10.0 mi NW 9.2 mph 18.4 mph N/A   Scattered Clouds
2:46 PM 93.2 °F 100.5 °F 71.6 °F 49% 29.88 in 10.0 mi WNW 10.4 mph 20.7 mph N/A   Scattered Clouds
3:45 PM 93.2 °F 100.5 °F 71.6 °F 49% 29.86 in 10.0 mi WNW 8.1 mph - N/A   Scattered Clouds
4:45 PM 93.2 °F 98.8 °F 69.8 °F 46% 29.84 in 10.0 mi WNW 12.7 mph 19.6 mph N/A   Mostly Cloudy
5:48 PM 93.2 °F 97.7 °F 68.0 °F 44% 29.85 in 10.0 mi WNW 10.4 mph 23.0 mph N/A   Mostly Cloudy
6:46 PM 84.2 °F 87.3 °F 68.0 °F 58% 29.88 in 10.0 mi East 13.8 mph 31.1 mph N/A   Mostly Cloudy
7:45 PM 73.4 °F - 68.0 °F 83% 29.92 in 10.0 mi East 12.7 mph 36.8 mph N/A   Mostly Cloudy
8:25 PM 71.6 °F - 66.2 °F 83% 29.94 in 10.0 mi East 16.1 mph 25.3 mph N/A Rain , Thunderstorm Light Thunderstorms and Rain
8:48 PM 71.6 °F - 66.2 °F 83% 29.92 in 10.0 mi East 16.1 mph 25.3 mph N/A   Overcast
8:55 PM 69.8 °F - 68.0 °F 94% 29.92 in 8.0 mi SE 15.0 mph 19.6 mph N/A Rain , Thunderstorm Light Rain
9:15 PM 69.8 °F - 68.0 °F 94% 29.93 in 10.0 mi SSE 10.4 mph - N/A   Overcast
9:35 PM 71.6 °F - 68.0 °F 88% 29.92 in 10.0 mi South 6.9 mph - N/A   Overcast
9:55 PM 69.8 °F - 68.0 °F 94% 29.92 in 10.0 mi South 8.1 mph - N/A   Mostly Cloudy
10:15 PM 69.8 °F - 68.0 °F 94% 29.93 in 9.0 mi West 3.5 mph - N/A Rain Light Rain
10:35 PM 69.8 °F - 68.0 °F 94% 29.92 in 10.0 mi South 8.1 mph - N/A   Mostly Cloudy
10:55 PM 71.6 °F - 66.2 °F 83% 29.93 in 10.0 mi South 8.1 mph - N/A   Partly Cloudy
11:15 PM 71.6 °F - 66.2 °F 83% 29.92 in 10.0 mi South 6.9 mph - N/A   Mostly Cloudy
11:35 PM 71.6 °F - 68.0 °F 88% 29.92 in 10.0 mi South 4.6 mph - N/A   Partly Cloudy
11:55 PM 71.6 °F - 68.0 °F 88% 29.91 in 10.0 mi Calm Calm - N/A   Clear